{"data":{"norad_id":60491,"epoch":"2026-05-25T03:36:33.631200Z","epoch_age_seconds":72735,"freshness":"FRESH","line1":"1 60491U 24149Z   26145.15038925  .00132903  00000+0  19914-2 0  9994","line2":"2 60491  97.3696 229.7493 0001613 127.3138 232.8263 15.54480770 98840","mean_motion":15.5448077,"eccentricity":0.0001613,"inclination_deg":97.3696,"raan_deg":229.7493,"arg_perigee_deg":127.3138,"mean_anomaly_deg":232.8263,"bstar":0.0019914,"rev_number":9884,"period_min":92.635433502339,"perigee_km":402.56848276742,"apogee_km":404.75629124967,"semimajor_km":6781.7993870085,"source":"CELESTRAK","updated_at":"2026-05-25T13:38:13.303947Z"}}